Погода Мосеево

Поиск расширенной информации на нашем сайте:

Полезная информация:

Новости сайта



02.01.2020
Опубликован Долгосрочный прогноз погоды по городам России и ближнего зарубежья на январь 2020 года.
Карты: Прогноз на январь и февраль 2020 года, Сравнение прогнозируемой аномалии приземной температуры воздуха на январь 2020 года по разным моделям.




Погода Мосеево - сегодня

Время (UTC), дата Ветер
(°,м/с) 
Видим.   Явления Облачность Т
(°С)
Тd
(°С)
f(%) Тe
(°С)
Pmin
(гПа)
dP
(гПа)
Po
(мм)
O2
(г/м3)
Тmin Tmax R s Состояние
почвы
09 29.11.20 190 (Ю) 20000 м    9/0 верхняя 
[Ci sp]
-9.3 -11.5 84 -13  1039.1  0.5  775  324           
12 29.11.20 180 (Ю) 20000 м    9/0 верхняя 
[Ci sp]
-8.8 -11.1 83 -13  1038  -1.2  774  323           
15 29.11.20 190 (Ю) 20000 м    9/3 1000 м средняя 
[Sc|Ac As]
-8.3 -9.5 91 -13  1037.5  -0.4  774  323    -8.3       
18 29.11.20 170 (Ю) 20000 м    10/10 1000 м 
[Sc]
-8.1 -9.1 92 -12  1036.9  -0.7  773  322           
21 29.11.20 190 (Ю) 10 км  слаб. ливневой снег  10/10 600 м кучево-дожд. 
[Cb calv]
-7 -7.9 93 -12  1036.7  -0.1  773  321           
00 30.11.20 180 (Ю) 20000 м  {ливн. осадки}  10/10 600 м кучево-дожд. 
[Cb calv]
-5.2 -6.6 90 -9  1035.6  -1.1  773  318           
03 30.11.20 180 (Ю) 6{10}  10 км  слаб. ливневой снег  10/5 600 м кучево-дожд., средняя 
[Cb calv|Ac As]
-4.3 -5.5 91 -9  1034.2  -1.3  772  317  -8.3    0.0  13  равномерный
сухой снег
100% 
06 30.11.20 170 (Ю) 5{10}  4000 м  слаб. ливневой снег  10/10 600 м кучево-дожд. 
[Cb cap]
-4.4 -5.7 91 -8  1033.5  -0.7  771  316           
09 30.11.20 190 (Ю) 20000 м  {ливн. осадки}  10/10 1000 м 
[Sc]
-3.5 -4.6 92 -6  1032.7  -0.8  770  315           
12 30.11.20 170 (Ю) 10 км  слаб. ливневой снег  10/10 600 м кучево-дожд. 
[Cb calv]
-3.6 -5 90 -7  1032  -0.7  770  315           
15 30.11.20 180 (Ю) 10 км  слаб. ливневой снег  10/10 600 м кучево-дожд. 
[Cb cap]
-3.4 -5.1 88 -8  1031  -1  769  314    -3  0.0     
18 30.11.20 170 (Ю) 20000 м  {ливн. осадки}  8/3 1000 м средняя, верхняя 
[Sc diur, vesp|Ac cuf|Cs]
-3 -4.7 88 -6  1029.1  -1.9  768  313           
21 30.11.20 170 (Ю) 10 км  слаб. ливневой снег  10/9 600 м кучево-дожд., средняя 
[Cb calv|Ac As]
-2.2 -4 87 -7  1027.9  -1.1  767  312           
03 01.12.20 180 (Ю) 6{10}  4000 м  слаб. ливневой снег  10/10 300 м кучево-дожд. 
[Cb cap]
-0.3 -1.8 90 -4  1024.1  -0.7  764  308  -3.5    0.0  12  равномерный
сухой снег
100% 
06 01.12.20 180 (Ю) 7{11}  4000 м  слаб. ливневой снег  10/10 300 м кучево-дожд. 
[Cb cap]
-0.1 -1.5 90 -4  1023.2  -0.9  763  308           
09 01.12.20 180 (Ю) 7{11}  2000 м  слаб. ливневой снег  9/8 300 м кучево-дожд., средняя 
[Cb cap|Ac As]
-0.4 -2.2 88 -4  1022.7  -0.5  763  308           
12 01.12.20 190 (Ю) 7{12}  4000 м  слаб. ливневой снег  10/9 300 м кучево-дожд., средняя 
[Cb cap|Ac As]
-0.5 -2 90 -4  1022.2  -0.5  763  308           
15 01.12.20 180 (Ю) 7{13}  4000 м  слаб. ливневой снег  10/10 300 м кучево-дожд. 
[Cb cap]
-1.1 -3 87 -5  1021.7  -0.5  762  309    -0  0.2     
21 01.12.20 210 (ЮЗ) 6{11}  20000 м  {ливн. осадки}  10/9 600 м кучево-дожд., средняя 
[Cb calv|Ac As]
-1.1 -4 81 -5  1022.1  0.7  763  309           
00 02.12.20 190 (Ю) 5{10}  20000 м  {ливн. осадки}  10/9 600 м кучево-дожд., средняя 
[Cb calv|Ac As]
-1 -3.9 81 -4  1022.3  0.2  763  309           
03 02.12.20 190 (Ю) 4000 м  слаб. ливневой снег  10/10 600 м кучево-дожд. 
[Cb cap]
-1.8 -3.2 90 -5  1022.4  0.1  763  310  -2    0.2  13  равномерный
сухой снег
100% 
06 02.12.20 190 (Ю) 4000 м  слаб. ливневой снег  10/10 300 м кучево-дожд. 
[Cb cap]
-1.4 -3.1 88 -5  1022.4  763  309           
09 02.12.20 200 (Ю) 20000 м  {ливн. осадки}  10/10 300 м кучево-дожд. 
[Cb calv]
-1 -2.6 89 -3  1023.8  1.4  764  309           
12 02.12.20 230 (ЮЗ) 20000 м  {ливн. осадки}  10/10 1000 м 
[Sc]
-0.8 -2.4 89 -2  1024.8  1.2  765  309           
15 02.12.20 210 (ЮЗ) 20000 м    10/10 1000 м 
[Sc]
-0.8 -2.1 91 -2  1025.5  0.5  765  309    -0.5  0.2     
Время (UTC), дата Ветер
(°,м/с) 
Видим.   Явления Облачность Т
(°С)
Тd
(°С)
f(%) Тe
(°С)
Pmin
(гПа)
dP
(гПа)
Po
(мм)
O2
(г/м3)
Тmin Tmax R s Состояние
почвы

Для получения пояснительной информации подведите курсор к названию столбца.

ПОГОДА Мосеево - архив

Всё, что Вы хотите узнать о погоде Мосеево - удобно и подробно!

Выберите нужную дату (начиная с 1 января 2019* года) и нажмите кнопку "Найти".
Будут отображены архивные сводки погоды по пункту Мосеево, начиная с указанной даты.


Отображать данные в формате CSV (для использования в таблицах Excel)


Внимание! Наш архив погоды предназначен исключительно для личного некоммерческого использования в познавательных целях. Если Вам необходимы официальные справки о состоянии погоды (для производственных, юридических, коммерческих и т.п. целей), обращайтесь в органы Росгидромета.

*Примечание: данная дата относится к архиву по метеостанциям СССР (Россия, СНГ, Балтия).
Архив по метеостанциям Зарубежной Европы и Азии (кроме Китая) хранится 10 дней, по другим регионам земного шара (Китай, Африка, Америка, Австралия, Океания) - 1 день.

Мосеево - район местоположения метеостанции


Название, широта, долгота, высота метеостанции:
Мосеево 65.8°ш. 46.2°д. 39 м над ур. моря [Российская Федерация]

Дополнительная информация

В oтличие oт бoльшинства пoгoдных сайтoв мы публикуем пoдрoбную метеoинфoрмацию в детальнoм прoфессиoнальнoм фoрмате.

Характеристики температуры и влажнoсти вoздуха измеряются на высoте 2 м в тени вдали oт зданий и деревьев.
Скoрoсть ветра измеряется на высoте 10 м (на урoвне рoста челoвека скoрoсть ветра ниже в 1.5-2 раза). Если метеoстанция нахoдится в гoрoде или в лесу, тo скoрoсть ветра занижена на 2-4 м/с пo сравнению с oткрытым местoм. Скoрoсть ветра над акватoриями крупных рек и oзёр, а также на вершинах хoлмoв на 2-5 м/с выше, чем в oбычных услoвиях.
Атмoсфернoе давление в разных тoчках местнoсти мoжет значительнo oтличаться oт давления на метеoстанции, в зависимoсти oт услoвий рельефа (при пoдъёме на 10 м давление пoнижается примернo на 1 мм рт.ст.).